Regional Weather Roundup
Issued by NWS

Home | Current Version | Previous Version | Text Only | Print | Product List | Glossary Off
Versions: 1 2 3 4 5 6 7 8 9 10 11 12 13 14 15 16 17 18 19 20 21 22 23 24 25 26 27 28 29 30 31 32 33 34 35 36 37 38 39 40 41 42 43 44 45 46 47 48 49 50

000
ASUS43 KLOT 212103
RWRIL

ILLINOIS REGIONAL WEATHER ROUNDUP
NATIONAL WEATHER SERVICE CHICAGO/ROMEOVILLE IL
300 PM CST SUN JAN 21 2018

NOTE: "FAIR" INDICATES FEW OR NO CLOUDS BELOW 12,000 FEET WITH NO
SIGNIFICANT WEATHER AND/OR OBSTRUCTIONS TO VISIBILITY.

* THESE STATIONS ARE NOT UNDER NWS QUALITY CONTROL. THEY ALSO MAY NOT
  REPORT WEATHER SUCH AS PRECIPITATION OR FOG.

ILZ001-002-007-009-015-016-024-212200-
NORTHWEST ILLINOIS

CITY           SKY/WX    TMP DP  RH WIND       PRES   REMARKS
MOLINE         FOG       44  43  96 E7        29.81F VSB 1
STERLING*        N/A    N/A N/A N/A MISG        N/A
SAVANNA*       FOG       40  39  97 E7        29.85F VSB 1
$$

ILZ003-004-008-010-011-017-018-212200-
NORTH CENTRAL ILLINOIS

CITY           SKY/WX    TMP DP  RH WIND       PRES   REMARKS
ROCKFORD       FOG       40  39  97 E6        29.89S VSB 1
FREEPORT*      FOG       38  38  99 E6        29.89S VSB 1/4 WCI  33
ROCHELLE*      FOG       40  40 100 E5        29.87S VSB 1/4
DE KALB*       FOG       40  40  99 E6        29.88F VSB<1/4
PERU*          FOG       44  43  97 E5        29.86S VSB 1
$$

ILZ005-006-012>014-019>023-212200-
NORTHEAST ILLINOIS

CITY           SKY/WX    TMP DP  RH WIND       PRES   REMARKS
CHICAGO-OHARE  CLOUDY    43  41  93 SE3       29.89S FOG
CHICAGO-MIDWAY CLOUDY    46  45  96 S3        29.90S FOG
AURORA         FOG       42  42 100 E7        29.88F VSB<1/4
LANSING*       CLOUDY    45  45 100 S5        29.91S
JOLIET*        DRIZZLE   46  46  98 E3        29.89S
WAUKEGAN       CLOUDY    37  36  96 E3        29.90S FOG
DUPAGE AIRPORT FOG       42  42 100 E5        29.89R VSB 1/4
KANKAKEE*      FOG      N/A N/A N/A SE5       29.90S VSB<1/4
WHEELING       CLOUDY    43  40  89 CALM      29.91S FOG
MORRIS*        CLOUDY    45  44  97 SE3       29.88S FOG
NORTHERLY ISL    N/A     36  35  96 MISG        N/A
$$

LMZ740>746-212200-
SOUTHERN LAKE MICHIGAN

STATION/POSITION SKY/WX   TEMP    WIND        PRES    VSBY  WAVE
                          AIR SEA DIR/SP/G                  HT/PER
                          (F)     (DEG/KT/KT) (MB)    (MI)  (FT/S)
HARRISON CRIB              39     110/ 10/ 10   N/A
BURNHAM HARBOR             36      CALM  /  2   N/A
CALUMET HARBOR             38      10/  2/  3 1012.2R
BURNS HARBOR               44     190/  8/ 11 1013.5S
MICHIGAN CITY              42     150/  6/  7   N/A
$$

ILZ025>027-034>036-040-047-049-050-058-095>099-212200-
WEST-CENTRAL ILLINOIS

CITY           SKY/WX    TMP DP  RH WIND       PRES   REMARKS
QUINCY         CLOUDY    63  52  67 SE7       29.77F
GALESBURG*     CLOUDY    50  47  92 SE5       29.82S
MACOMB*        CLOUDY    56  52  85 S7        29.82F
JACKSONVILLE*  MOSUNNY   62  52  71 SE12      29.82S
PITTSFIELD*    PTSUNNY   65  54  67 SE9       29.80F
$$

ILZ028>032-037-038-041>044-048-051>054-059>061-212200-
CENTRAL ILLINOIS

CITY           SKY/WX    TMP DP  RH WIND       PRES   REMARKS
BLOOMINGTON    FOG       51  51 100 S9        29.88R VSB 1
DECATUR        CLOUDY    56  54  93 S17G23    29.89R
PEORIA         CLOUDY    53  49  86 SE6       29.84S FOG
LACON*         CLOUDY    48  47  99 SE3       29.84S FOG
LINCOLN*       FAIR      60  55  84 S13G20    29.85S
SPRINGFIELD    PTSUNNY   60  53  77 S15       29.85S
TAYLORVILLE    CLOUDY    55  53  91 S13       29.87F
$$

ILZ033-039-045-046-055>057-062-063-212200-
EAST-CENTRAL ILLINOIS

CITY           SKY/WX    TMP DP  RH WIND       PRES   REMARKS
CHAMPAIGN      CLOUDY    51  51 100 S13       29.90S FOG
DANVILLE*      FOG       48  48 100 S10       29.90S VSB 1/4
RANTOUL*       FOG       50  50  99 S8        29.90S VSB 1/4
MATTOON        FOG       49  49 100 S12       29.91F VSB 1/4
$$

ILZ079-100>102-212200-
SOUTHWEST ILLINOIS

CITY           SKY/WX    TMP DP  RH WIND       PRES   REMARKS
ALTON          PTSUNNY   61  55  82 S13       29.84F
BELLEVILLE     CLOUDY    60  52  77 S15       29.86S
CAHOKIA*       PTSUNNY   65  54  67 S10       29.84F
SPARTA*        CLOUDY    53  53 100 S13       29.92S
$$

ILZ064>066-069>071-074>076-080>082-084>086-088>090-092>094-212200-
SOUTH-CENTRAL ILLINOIS

CITY           SKY/WX    TMP DP  RH WIND       PRES   REMARKS
CARBONDALE     CLOUDY    54  54 100 S16G26    29.93F FOG
CAIRO*         CLOUDY    54  51  92 S6        29.97S
EFFINGHAM*     FOG       50  50 100 SE7       29.94F VSB 1/2
MARION         CLOUDY    54  54 100 S17       29.95F FOG
MT. VERNON     CLOUDY    53  52  96 S9        29.94S
CENTRALIA*     CLOUDY    55  53  96 S8        29.92S FOG
SALEM*         CLOUDY    54  52  94 S7        29.92S FOG
$$

ILZ067-068-072-073-078-083-087-091-212200-
SOUTHEAST ILLINOIS

CITY           SKY/WX    TMP DP  RH WIND       PRES   REMARKS
LAWRENCEVILLE  FOG       47  47 100 S12       29.98S VSB 1/4
FLORA*         FOG       51  51  98 S8        29.95S VSB 1/4
FAIRFIELD*     CLOUDY    52  52 100 S7        29.94F FOG
HARRISBURG*    CLOUDY    56  54  92 S13G20    29.97F
ROBINSON*      FOG       47  47 100 S9        29.97S VSB 1
CARMI*         CLOUDY    48  48  99 S12       29.97S FOG
$$

ABBREVIATIONS USED IN REMARKS
   TC - TEMPERATURE IN CELSIUS
  WCI - WIND CHILL INDEX
   HX - HEAT INDEX
  VSB - VISIBILITY
$$





USA.gov is the U.S. government's official web portal to all federal, state and local government web resources and services.